﻿測定場所 (Monitoring sites),日付 (Measurement date),時間 (Measurement time),線量率 最大値 (max) μGy/h,線量率 最小値 (min) μGy/h,線量率 平均値 (average) μGy/h,
八王子 (Hachioji),2022-04-03,23:01～24:00,0.0413,0.0360,0.0386,
八王子 (Hachioji),2022-04-03,22:01～23:00,0.0412,0.0354,0.0382,
八王子 (Hachioji),2022-04-03,21:01～22:00,0.0409,0.0367,0.0393,
八王子 (Hachioji),2022-04-03,20:01～21:00,0.0443,0.0381,0.0410,
八王子 (Hachioji),2022-04-03,19:01～20:00,0.0440,0.0385,0.0414,
八王子 (Hachioji),2022-04-03,18:01～19:00,0.0442,0.0406,0.0422,
八王子 (Hachioji),2022-04-03,17:01～18:00,0.0449,0.0388,0.0421,
八王子 (Hachioji),2022-04-03,16:01～17:00,0.0439,0.0378,0.0406,
八王子 (Hachioji),2022-04-03,15:01～16:00,0.0432,0.0374,0.0404,
八王子 (Hachioji),2022-04-03,14:01～15:00,0.0418,0.0364,0.0394,
八王子 (Hachioji),2022-04-03,13:01～14:00,0.0426,0.0388,0.0406,
八王子 (Hachioji),2022-04-03,12:01～13:00,0.0431,0.0376,0.0404,
八王子 (Hachioji),2022-04-03,11:01～12:00,0.0417,0.0376,0.0397,
八王子 (Hachioji),2022-04-03,10:01～11:00,0.0412,0.0346,0.0381,
八王子 (Hachioji),2022-04-03,09:01～10:00,0.0405,0.0351,0.0382,
八王子 (Hachioji),2022-04-03,08:01～09:00,0.0416,0.0358,0.0390,
八王子 (Hachioji),2022-04-03,07:01～08:00,0.0412,0.0348,0.0381,
八王子 (Hachioji),2022-04-03,06:01～07:00,0.0395,0.0339,0.0361,
八王子 (Hachioji),2022-04-03,05:01～06:00,0.0411,0.0356,0.0376,
八王子 (Hachioji),2022-04-03,04:01～05:00,0.0410,0.0373,0.0392,
八王子 (Hachioji),2022-04-03,03:01～04:00,0.0409,0.0357,0.0379,
八王子 (Hachioji),2022-04-03,02:01～03:00,0.0393,0.0329,0.0362,
八王子 (Hachioji),2022-04-03,01:01～02:00,0.0367,0.0327,0.0346,
八王子 (Hachioji),2022-04-03,00:01～01:00,0.0369,0.0320,0.0346,
八王子 (Hachioji),2022-04-02,23:01～24:00,0.0371,0.0321,0.0341,
八王子 (Hachioji),2022-04-02,22:01～23:00,0.0359,0.0315,0.0336,
八王子 (Hachioji),2022-04-02,21:01～22:00,0.0370,0.0311,0.0336,
八王子 (Hachioji),2022-04-02,20:01～21:00,0.0359,0.0311,0.0337,
八王子 (Hachioji),2022-04-02,19:01～20:00,0.0357,0.0312,0.0336,
八王子 (Hachioji),2022-04-02,18:01～19:00,0.0367,0.0316,0.0334,
八王子 (Hachioji),2022-04-02,17:01～18:00,0.0356,0.0307,0.0334,
八王子 (Hachioji),2022-04-02,16:01～17:00,0.0367,0.0310,0.0336,
八王子 (Hachioji),2022-04-02,15:01～16:00,0.0363,0.0316,0.0336,
八王子 (Hachioji),2022-04-02,14:01～15:00,0.0358,0.0306,0.0335,
八王子 (Hachioji),2022-04-02,13:01～14:00,0.0356,0.0304,0.0334,
八王子 (Hachioji),2022-04-02,12:01～13:00,0.0361,0.0308,0.0337,
八王子 (Hachioji),2022-04-02,11:01～12:00,0.0377,0.0302,0.0338,
八王子 (Hachioji),2022-04-02,10:01～11:00,0.0364,0.0317,0.0339,
八王子 (Hachioji),2022-04-02,09:01～10:00,0.0362,0.0320,0.0340,
八王子 (Hachioji),2022-04-02,08:01～09:00,0.0379,0.0320,0.0343,
八王子 (Hachioji),2022-04-02,07:01～08:00,0.0370,0.0330,0.0352,
八王子 (Hachioji),2022-04-02,06:01～07:00,0.0379,0.0329,0.0354,
八王子 (Hachioji),2022-04-02,05:01～06:00,0.0377,0.0325,0.0353,
八王子 (Hachioji),2022-04-02,04:01～05:00,0.0377,0.0328,0.0354,
八王子 (Hachioji),2022-04-02,03:01～04:00,0.0373,0.0325,0.0351,
八王子 (Hachioji),2022-04-02,02:01～03:00,0.0386,0.0330,0.0350,
八王子 (Hachioji),2022-04-02,01:01～02:00,0.0381,0.0328,0.0345,
八王子 (Hachioji),2022-04-02,00:01～01:00,0.0377,0.0316,0.0346,
八王子 (Hachioji),2022-04-01,23:01～24:00,0.0363,0.0319,0.0341,
八王子 (Hachioji),2022-04-01,22:01～23:00,0.0362,0.0316,0.0339,
八王子 (Hachioji),2022-04-01,21:01～22:00,0.0363,0.0311,0.0340,
八王子 (Hachioji),2022-04-01,20:01～21:00,0.0369,0.0302,0.0337,
八王子 (Hachioji),2022-04-01,19:01～20:00,0.0367,0.0322,0.0340,
八王子 (Hachioji),2022-04-01,18:01～19:00,0.0363,0.0321,0.0342,
八王子 (Hachioji),2022-04-01,17:01～18:00,0.0367,0.0319,0.0337,
八王子 (Hachioji),2022-04-01,16:01～17:00,0.0354,0.0308,0.0336,
八王子 (Hachioji),2022-04-01,15:01～16:00,0.0353,0.0312,0.0337,
八王子 (Hachioji),2022-04-01,14:01～15:00,0.0360,0.0308,0.0334,
八王子 (Hachioji),2022-04-01,13:01～14:00,0.0367,0.0312,0.0336,
八王子 (Hachioji),2022-04-01,12:01～13:00,0.0363,0.0313,0.0338,
八王子 (Hachioji),2022-04-01,11:01～12:00,0.0371,0.0311,0.0339,
八王子 (Hachioji),2022-04-01,10:01～11:00,0.0369,0.0311,0.0341,
八王子 (Hachioji),2022-04-01,09:01～10:00,0.0375,0.0328,0.0347,
八王子 (Hachioji),2022-04-01,08:01～09:00,0.0409,0.0344,0.0377,
八王子 (Hachioji),2022-04-01,07:01～08:00,0.0610,0.0406,0.0488,
八王子 (Hachioji),2022-04-01,06:01～07:00,0.0635,0.0569,0.0605,
八王子 (Hachioji),2022-04-01,05:01～06:00,0.0619,0.0527,0.0565,
八王子 (Hachioji),2022-04-01,04:01～05:00,0.0559,0.0466,0.0513,
八王子 (Hachioji),2022-04-01,03:01～04:00,0.0541,0.0464,0.0498,
八王子 (Hachioji),2022-04-01,02:01～03:00,0.0548,0.0474,0.0521,
八王子 (Hachioji),2022-04-01,01:01～02:00,0.0536,0.0478,0.0505,
八王子 (Hachioji),2022-04-01,00:01～01:00,0.0544,0.0480,0.0516,
八王子 (Hachioji),2022-03-31,23:01～24:00,0.0548,0.0475,0.0517,
八王子 (Hachioji),2022-03-31,22:01～23:00,0.0495,0.0427,0.0465,
八王子 (Hachioji),2022-03-31,21:01～22:00,0.0511,0.0332,0.0437,
八王子 (Hachioji),2022-03-31,20:01～21:00,0.0381,0.0322,0.0347,
八王子 (Hachioji),2022-03-31,19:01～20:00,0.0370,0.0327,0.0348,
八王子 (Hachioji),2022-03-31,18:01～19:00,0.0366,0.0310,0.0342,
八王子 (Hachioji),2022-03-31,17:01～18:00,0.0368,0.0322,0.0342,
八王子 (Hachioji),2022-03-31,16:01～17:00,0.0369,0.0327,0.0341,
八王子 (Hachioji),2022-03-31,15:01～16:00,0.0368,0.0314,0.0344,
八王子 (Hachioji),2022-03-31,14:01～15:00,0.0522,0.0106,0.0343,
八王子 (Hachioji),2022-03-31,09:01～10:00,0.0339,0.0275,0.0312,
八王子 (Hachioji),2022-03-31,08:01～09:00,0.0331,0.0292,0.0311,
八王子 (Hachioji),2022-03-31,07:01～08:00,0.0332,0.0297,0.0315,
八王子 (Hachioji),2022-03-31,06:01～07:00,0.0337,0.0297,0.0315,
八王子 (Hachioji),2022-03-31,05:01～06:00,0.0327,0.0290,0.0309,
八王子 (Hachioji),2022-03-31,04:01～05:00,0.0324,0.0289,0.0309,
八王子 (Hachioji),2022-03-31,03:01～04:00,0.0330,0.0297,0.0314,
八王子 (Hachioji),2022-03-31,02:01～03:00,0.0340,0.0287,0.0312,
八王子 (Hachioji),2022-03-31,01:01～02:00,0.0325,0.0288,0.0305,
八王子 (Hachioji),2022-03-31,00:01～01:00,0.0320,0.0287,0.0302,
八王子 (Hachioji),2022-03-30,23:01～24:00,0.0331,0.0283,0.0304,
八王子 (Hachioji),2022-03-30,22:01～23:00,0.0321,0.0279,0.0303,
八王子 (Hachioji),2022-03-30,21:01～22:00,0.0325,0.0276,0.0302,
八王子 (Hachioji),2022-03-30,20:01～21:00,0.0320,0.0287,0.0301,
八王子 (Hachioji),2022-03-30,19:01～20:00,0.0324,0.0283,0.0302,
八王子 (Hachioji),2022-03-30,18:01～19:00,0.0325,0.0287,0.0302,
八王子 (Hachioji),2022-03-30,17:01～18:00,0.0324,0.0274,0.0299,
八王子 (Hachioji),2022-03-30,16:01～17:00,0.0327,0.0285,0.0303,
八王子 (Hachioji),2022-03-30,15:01～16:00,0.0324,0.0277,0.0301,
八王子 (Hachioji),2022-03-30,14:01～15:00,0.0325,0.0288,0.0303,
八王子 (Hachioji),2022-03-30,13:01～14:00,0.0322,0.0277,0.0302,
八王子 (Hachioji),2022-03-30,12:01～13:00,0.0316,0.0280,0.0300,
八王子 (Hachioji),2022-03-30,11:01～12:00,0.0320,0.0282,0.0301,
八王子 (Hachioji),2022-03-30,10:01～11:00,0.0319,0.0284,0.0303,
八王子 (Hachioji),2022-03-30,09:01～10:00,0.0329,0.0287,0.0307,
八王子 (Hachioji),2022-03-30,08:01～09:00,0.0332,0.0290,0.0315,
八王子 (Hachioji),2022-03-30,07:01～08:00,0.0336,0.0293,0.0312,
八王子 (Hachioji),2022-03-30,06:01～07:00,0.0344,0.0283,0.0315,
八王子 (Hachioji),2022-03-30,05:01～06:00,0.0327,0.0290,0.0309,
八王子 (Hachioji),2022-03-30,04:01～05:00,0.0330,0.0291,0.0310,
八王子 (Hachioji),2022-03-30,03:01～04:00,0.0331,0.0289,0.0307,
八王子 (Hachioji),2022-03-30,02:01～03:00,0.0323,0.0288,0.0307,
八王子 (Hachioji),2022-03-30,01:01～02:00,0.0327,0.0290,0.0311,
八王子 (Hachioji),2022-03-30,00:01～01:00,0.0325,0.0294,0.0309,
八王子 (Hachioji),2022-03-29,23:01～24:00,0.0328,0.0292,0.0308,
八王子 (Hachioji),2022-03-29,22:01～23:00,0.0329,0.0287,0.0305,
八王子 (Hachioji),2022-03-29,21:01～22:00,0.0324,0.0278,0.0303,
八王子 (Hachioji),2022-03-29,20:01～21:00,0.0327,0.0287,0.0305,
八王子 (Hachioji),2022-03-29,19:01～20:00,0.0330,0.0286,0.0306,
八王子 (Hachioji),2022-03-29,18:01～19:00,0.0323,0.0288,0.0305,
八王子 (Hachioji),2022-03-29,17:01～18:00,0.0322,0.0284,0.0306,
八王子 (Hachioji),2022-03-29,16:01～17:00,0.0323,0.0285,0.0303,
八王子 (Hachioji),2022-03-29,15:01～16:00,0.0327,0.0287,0.0305,
八王子 (Hachioji),2022-03-29,14:01～15:00,0.0322,0.0288,0.0307,
八王子 (Hachioji),2022-03-29,13:01～14:00,0.0323,0.0281,0.0302,
八王子 (Hachioji),2022-03-29,12:01～13:00,0.0328,0.0284,0.0306,
八王子 (Hachioji),2022-03-29,11:01～12:00,0.0323,0.0283,0.0304,
八王子 (Hachioji),2022-03-29,10:01～11:00,0.0327,0.0286,0.0306,
八王子 (Hachioji),2022-03-29,09:01～10:00,0.0331,0.0290,0.0307,
八王子 (Hachioji),2022-03-29,08:01～09:00,0.0331,0.0293,0.0313,
八王子 (Hachioji),2022-03-29,07:01～08:00,0.0351,0.0298,0.0323,
八王子 (Hachioji),2022-03-29,06:01～07:00,0.0341,0.0285,0.0313,
八王子 (Hachioji),2022-03-29,05:01～06:00,0.0320,0.0288,0.0305,
八王子 (Hachioji),2022-03-29,04:01～05:00,0.0323,0.0284,0.0301,
八王子 (Hachioji),2022-03-29,03:01～04:00,0.0337,0.0275,0.0304,
八王子 (Hachioji),2022-03-29,02:01～03:00,0.0324,0.0288,0.0308,
八王子 (Hachioji),2022-03-29,01:01～02:00,0.0328,0.0282,0.0304,
八王子 (Hachioji),2022-03-29,00:01～01:00,0.0329,0.0284,0.0302,
八王子 (Hachioji),2022-03-28,23:01～24:00,0.0325,0.0282,0.0306,
八王子 (Hachioji),2022-03-28,22:01～23:00,0.0328,0.0277,0.0303,
八王子 (Hachioji),2022-03-28,21:01～22:00,0.0321,0.0279,0.0302,
八王子 (Hachioji),2022-03-28,20:01～21:00,0.0333,0.0280,0.0303,
八王子 (Hachioji),2022-03-28,19:01～20:00,0.0322,0.0284,0.0300,
八王子 (Hachioji),2022-03-28,18:01～19:00,0.0316,0.0270,0.0300,
八王子 (Hachioji),2022-03-28,17:01～18:00,0.0322,0.0283,0.0304,
八王子 (Hachioji),2022-03-28,16:01～17:00,0.0323,0.0285,0.0303,
八王子 (Hachioji),2022-03-28,15:01～16:00,0.0324,0.0287,0.0306,
八王子 (Hachioji),2022-03-28,14:01～15:00,0.0321,0.0284,0.0305,
八王子 (Hachioji),2022-03-28,13:01～14:00,0.0323,0.0286,0.0303,
八王子 (Hachioji),2022-03-28,12:01～13:00,0.0327,0.0286,0.0304,
八王子 (Hachioji),2022-03-28,11:01～12:00,0.0330,0.0290,0.0307,
八王子 (Hachioji),2022-03-28,10:01～11:00,0.0326,0.0288,0.0307,
八王子 (Hachioji),2022-03-28,09:01～10:00,0.0327,0.0292,0.0309,
八王子 (Hachioji),2022-03-28,08:01～09:00,0.0329,0.0275,0.0307,
八王子 (Hachioji),2022-03-28,07:01～08:00,0.0314,0.0282,0.0301,
八王子 (Hachioji),2022-03-28,06:01～07:00,0.0320,0.0287,0.0301,
八王子 (Hachioji),2022-03-28,05:01～06:00,0.0322,0.0283,0.0300,
八王子 (Hachioji),2022-03-28,04:01～05:00,0.0322,0.0276,0.0300,
八王子 (Hachioji),2022-03-28,03:01～04:00,0.0326,0.0285,0.0303,
八王子 (Hachioji),2022-03-28,02:01～03:00,0.0324,0.0288,0.0307,
八王子 (Hachioji),2022-03-28,01:01～02:00,0.0345,0.0301,0.0321,
八王子 (Hachioji),2022-03-28,00:01～01:00,0.0350,0.0298,0.0326,
